User: anonymous   Login
Location: Unspecified
(0.0000°N, 0.0000°E)
Time: 14:51:01
(UTC+00:00)
Language:

NEXUS - Orbit

View from above orbital plane
View from above orbital plane
View from above satellite
View from above satellite

Ground track
Ground track

The orbit data is extracted from the following two-line orbital elements,

1 43937U 19003F   19294.20538847  .00001069  00000-0  46962-4 0  9998
2 43937  97.2628 348.2730 0024200 357.3332  54.7683 15.23806887 42044
Epoch (UTC): 21 October 2019 04:55:45
Eccentricity: 0.0024200
inclination: 97.2628°
perigee height: 478 km
apogee height: 511 km
right ascension of ascending node: 348.2730°
argument of perigee: 357.3332°
revolutions per day: 15.23806887
mean anomaly at epoch: 54.7683°
orbit number at epoch: 4204

The dashed part of the orbit path shows where the satellite is in the earth's shadow,  

DLR